Location: Unspecified
(48.5670°N, 0.0000°E)
Time: 05:36:57
(UTC+00:00)

Transit 4A - Pass Details

Date: 30 August 2019
Orbit: 865 x 980 km, 66.8° (Epoch: 14 September)

Event Time Altitude Azimuth Distance (km) Brightness Sun altitude
Rises 20:57:42 0° 307° (NW) 3,675 12.6 -19.9°
Reaches altitude 10° 21:01:43 10° 331° (NNW) 2,711 11.4 -20.4°
Maximum altitude 21:05:03 15° 3° (N) 2,378 10.5 -20.8°
Drops below altitude 10° 21:08:22 10° 36° (NE) 2,674 10.4 -21.2°
Sets 21:12:16 0° 60° (ENE) 3,592 10.8 -21.7°
